Location: Palomar Mountain Lodge
(33.3110°N, 116.8495°W)
Time: 02:20:29
(UTC-07:00)

Terra - Pass Details

Date: 19 May 2017
Orbit: 701 x 703 km, 98.2° (Epoch: 16 October)

Event Time Altitude Azimuth Distance (km) Brightness Sun altitude
Exits shadow 21:38:43 13° 64° (ENE) 1,978 3.9 -20.8°
Drops below altitude 10° 21:40:42 10° 39° (NE) 2,170 4.4 -21.1°
Sets 21:44:11 0° 12° (NNE) 3,093 5.6 -21.6°
